Location: Aranbee
(34.0885°N, 118.2342°W)
Time: 22:33:23
(UTC+00:00)

Vanguard 2 Rocket - Visible Passes

Search period start: 25 November 2020 00:00
Search period end: 05 December 2020 00:00
Orbit: 554 x 3326 km, 32.9° (Epoch: 25 November)

Date Brightness Start Highest point End Pass type
(mag) Time Alt. Az. Time Alt. Az. Time Alt. Az.
25 Nov 11.4 12:08:37 10° SSE 12:15:37 13° SE 12:22:47 10° ESE visible
26 Nov 11.0 13:14:42 10° SSW 13:30:06 31° SE 13:45:31 10° E visible
27 Nov 11.0 12:16:34 10° S 12:28:47 22° SE 12:41:48 10° E visible
28 Nov 11.2 11:21:20 10° SSE 11:27:49 13° SE 11:34:42 10° ESE visible
28 Nov 10.7 13:26:27 10° SSW 13:43:19 42° SE 14:00:33 10° E visible
29 Nov 10.8 12:27:21 10° SSW 12:41:49 31° SE 12:57:51 10° E visible
30 Nov 10.8 11:29:33 10° S 11:40:46 21° SE 11:53:38 10° E visible
30 Nov 10.4 13:38:57 10° SW 13:56:35 53° SSE 14:15:03 10° E visible
01 Dec 11.0 10:35:00 10° SE 10:40:09 12° SE 10:45:45 10° ESE visible
01 Dec 10.5 12:39:18 10° SSW 12:54:52 42° SE 13:12:49 10° E visible
02 Dec 10.6 11:40:33 10° S 11:53:38 31° SE 12:09:37 10° E visible
02 Dec 10.1 13:52:01 10° SW 14:10:01 64° SSE 14:29:15 10° ENE visible
03 Dec 10.6 10:43:06 10° S 10:52:58 20° SE 11:04:57 10° E visible
03 Dec 10.1 12:51:57 10° SW 13:08:01 53° SSE 13:27:14 10° ENE visible
04 Dec 10.8 09:49:58 10° SE 09:52:44 11° SE 09:55:39 10° ESE visible
04 Dec 10.2 11:52:40 10° SSW 12:06:34 42° SE 12:24:32 10° E visible
04 Dec 9.9 14:05:30 10° WSW 14:23:40 74° SSE 14:43:20 10° E visible
